{"data":{"norad_id":58355,"intl_designator":"2023-177E","name":"STARLINK-30903","alt_names":[],"object_type":"PAYLOAD","status":"ACTIVE","operator":null,"country":"US","launch_date":"2023-11-18","launch_site_code":"AFETR","launch_vehicle":null,"mission":null,"orbit_class":"UNKNOWN","rcs_meters":null,"size_class":null,"mass_kg":null,"dimensions":null,"purposes":["comms"],"wikipedia_slug":null,"has_3d_model":false,"image_url":null,"decayed_at":null,"tle_current":{"epoch":"2026-09-20T12:01:05.510208Z","epoch_age_seconds":143528,"freshness":"FRESH","line1":"1 58355U 23177E   26263.50075822 -.00001277  00000+0 -36887-4 0  9998","line2":"2 58355  43.0048 330.2152 0001639 268.2094  91.8570 15.27574104158025","mean_motion":15.27574104,"eccentricity":0.0001639,"inclination_deg":43.0048,"raan_deg":330.2152,"arg_perigee_deg":268.2094,"mean_anomaly_deg":91.857,"bstar":-3.6887e-5,"rev_number":15802,"period_min":94.267112556394,"perigee_km":481.94219954675,"apogee_km":484.19130213628,"semimajor_km":6861.2037508415,"source":"CELESTRAK","updated_at":"2026-09-21T09:00:33.841489Z"}}}